Change the Weather History Date:

Wednesday, August 21, 2013

  Actual Average Record
Temperature  
Mean Temperature 80 °F 81 °F  
Max Temperature 94 °F 93 °F 105 °F (1936)
Min Temperature 66 °F 70 °F 56 °F (1940)
Degree Days  
Heating Degree Days 0 0  
Month to date heating degree days 0 0  
Since 1 June heating degree days 0 0  
Since 1 July heating degree days 0 0  
Cooling Degree Days 15 16  
Month to date cooling degree days 334 352  
Year to date cooling degree days 1491 1575  
Since 1 June cooling degree days 1213 1264  
Growing Degree Days 30 (Base 50)    
Moisture  
Dew Point 68 °F    
Average Humidity 67    
Maximum Humidity 93    
Minimum Humidity 41    
Precipitation  
Precipitation 0.00 in 0.10 in 1.87 in (2006)
Month to date precipitation T 2.17  
Year to date precipitation 25.82 33.61  
Snow  
Snow 0.00 in - - ()
Month to date snowfall  
Since 1 June snowfall  
Since 1 July snowfall  
Snow Depth -    
Sea Level Pressure  
Sea Level Pressure 30.07 in    
Wind  
Wind Speed 2 mph (SE)    
Max Wind Speed 12 mph    
Max Gust Speed 20 mph    
Visibility 10 miles    
Events      
T = Trace of Precipitation, MM = Missing Value Source: NWS Daily Summary

Daily Weather History Graph

Daily Weather History Graph

Search for Another Location

Airport or City:

Trip Planner

Search our weather history database for the weather conditions in past years. The results will help you decide how hot, cold, wet, or windy it might be!

Date:

Astronomy

Aug. 21, 2013 Rise Set
Actual Time 6:38 AM CDT 7:49 PM CDT
Civil Twilight 6:12 AM CDT 8:15 PM CDT
Nautical Twilight 5:41 AM CDT 8:46 PM CDT
Astronomical Twilight 5:09 AM CDT 9:17 PM CDT
Moon 8:05 PM CDT (8/21) 7:13 AM CDT (8/21)
Length of Visible Light 14h 02m
Length of Day
13h 11m
Waxing Gibbous, 99% of the Moon is Illuminated
Aug 21
Waxing Gibbous
Aug 28
Last Quarter
Sep 5
New
Sep 12
First Quarter
Sep 19
Full

Hourly Weather History & Observations

Time (CDT) Temp. Heat Index Dew Point Humidity Pressure Visibility Wind Dir Wind Speed Gust Speed Precip Events Conditions
12:53 AM 70.0 °F - 66.0 °F 87% 30.05 in 10.0 mi Calm Calm - N/A   Clear
1:53 AM 69.1 °F - 66.0 °F 90% 30.05 in 10.0 mi Calm Calm - N/A   Clear
2:53 AM 69.1 °F - 66.0 °F 90% 30.05 in 10.0 mi Calm Calm - N/A   Clear
3:53 AM 68.0 °F - 66.0 °F 93% 30.05 in 10.0 mi Calm Calm - N/A   Clear
4:53 AM 66.9 °F - 64.9 °F 93% 30.06 in 10.0 mi Calm Calm - N/A   Clear
5:53 AM 66.9 °F - 64.9 °F 93% 30.08 in 10.0 mi Calm Calm - N/A   Clear
6:53 AM 66.9 °F - 64.9 °F 93% 30.09 in 8.0 mi Calm Calm - N/A   Clear
7:53 AM 72.0 °F - 69.1 °F 91% 30.11 in 9.0 mi Calm Calm - N/A   Clear
8:53 AM 75.9 °F - 70.0 °F 82% 30.12 in 10.0 mi Calm Calm - N/A   Clear
9:53 AM 81.0 °F 84.9 °F 71.1 °F 72% 30.12 in 10.0 mi Calm Calm - N/A   Clear
10:53 AM 84.0 °F 88.4 °F 70.0 °F 63% 30.12 in 10.0 mi Calm Calm - N/A   Clear
11:53 AM 87.1 °F 92.8 °F 71.1 °F 59% 30.12 in 10.0 mi Variable 5.8 mph - N/A   Clear
12:53 PM 90.0 °F 94.5 °F 69.1 °F 50% 30.10 in 10.0 mi Variable 3.5 mph - N/A   Scattered Clouds
1:53 PM 89.1 °F 92.9 °F 68.0 °F 50% 30.08 in 10.0 mi Variable 3.5 mph - N/A   Scattered Clouds
2:53 PM 91.9 °F 95.4 °F 66.9 °F 44% 30.05 in 10.0 mi Variable 3.5 mph - N/A   Partly Cloudy
3:53 PM 93.9 °F 97.0 °F 66.0 °F 40% 30.03 in 10.0 mi SSE 5.8 mph 19.6 mph N/A   Partly Cloudy
4:53 PM 93.0 °F 95.9 °F 66.0 °F 41% 30.02 in 10.0 mi South 4.6 mph - N/A   Clear
5:53 PM 91.0 °F 94.3 °F 66.9 °F 45% 30.02 in 10.0 mi SE 5.8 mph - N/A   Scattered Clouds
6:53 PM 90.0 °F 94.5 °F 69.1 °F 50% 30.01 in 10.0 mi SSE 5.8 mph - N/A   Partly Cloudy
7:53 PM 84.9 °F 88.8 °F 69.1 °F 59% 30.02 in 10.0 mi ESE 3.5 mph - N/A   Partly Cloudy
8:53 PM 82.0 °F 86.3 °F 71.1 °F 69% 30.04 in 10.0 mi SE 5.8 mph - N/A   Clear
9:53 PM 80.1 °F 83.6 °F 71.1 °F 74% 30.06 in 10.0 mi SSE 3.5 mph - N/A   Clear
10:53 PM 78.1 °F - 71.1 °F 79% 30.06 in 10.0 mi ESE 3.5 mph - N/A   Clear
11:53 PM 77.0 °F - 71.1 °F 82% 30.06 in 10.0 mi SE 3.5 mph - N/A   Clear